AO-07 1 07530U 74089B 24298.90053622 -.00000018 00000-0 17503-3 0 9994 2 07530 101.9887 294.8080 0012040 195.6552 224.4256 12.53681332285534 UO-11 1 14781U 84021B 24298.47537012 .00004756 00000-0 52662-3 0 9996 2 14781 97.7233 264.0588 0008695 22.7868 337.3733 14.87763688167706 AO-27 1 22825U 93061C 24298.44179552 .00000338 00000-0 14691-3 0 9998 2 22825 98.7729 352.4723 0009343 64.5255 295.6893 14.30625100621097 FO-29 1 24278U 96046B 24298.51064581 .00000043 00000-0 81097-4 0 9999 2 24278 98.5829 216.2199 0349407 213.1549 144.7253 13.53218222391927 NOAA-15 1 25338U 98030A 24298.84236188 .00000491 00000-0 22030-3 0 9990 2 25338 98.5595 323.2202 0009337 309.8398 50.1961 14.26761212375920 GO-32 1 25397U 98043D 24298.51427119 .00000379 00000-0 18479-3 0 9996 2 25397 98.9407 267.2817 0002061 118.8344 241.3041 14.24162509365829 ISS 1 25544U 98067A 24298.71203389 .00031337 00000-0 54762-3 0 9992 2 25544 51.6420 33.8287 0009267 102.6488 50.6267 15.50333707478632 NO-44 1 26931U 01043C 24298.54654425 .00000626 00000-0 26679-3 0 9996 2 26931 67.0527 357.3121 0007566 264.3285 95.6954 14.31450646204464 SO-50 1 27607U 02058C 24298.10621684 .00003874 00000-0 52467-3 0 9999 2 27607 64.5545 185.0034 0029357 43.9719 316.3714 14.80054250175392 CO-55 1 27844U 03031E 24298.57198861 .00001039 00000-0 47540-3 0 9998 2 27844 98.6795 303.8393 0010636 125.0919 235.1258 14.23568370106195 CO-57 1 27848U 03031J 24298.48838599 .00000886 00000-0 41289-3 0 9994 2 27848 98.6826 303.9244 0010270 140.5335 219.6593 14.22966316105928 RS-22 1 27939U 03042A 24298.86121738 .00003894 00000-0 64318-3 0 9999 2 27939 98.3061 97.3255 0011907 15.8089 118.3014 14.70951011127332 NOAA-18 1 28654U 05018A 24298.83544406 .00000500 00000-0 28967-3 0 9998 2 28654 98.8650 14.6735 0014935 58.5572 301.7058 14.13384344 1575 CO-58 1 28895U 05043F 24298.85730951 .00005467 00000-0 93893-3 0 9994 2 28895 98.2196 75.1144 0014402 309.6278 50.3655 14.69020375 13710 CO-65 1 32785U 08021C 24298.47361638 .00011618 00000-0 94706-3 0 9995 2 32785 97.7752 263.0594 0007609 258.7663 101.2704 14.99613293894836 AAUSAT2 1 32788U 08021F 24298.47506581 .00071322 00000-0 24942-2 0 9998 2 32788 97.6046 280.0917 0008991 83.0136 277.2126 15.29223260897998 CO-66 1 32791U 08021J 24298.43779509 .00020395 00000-0 12990-2 0 9994 2 32791 97.7057 269.3802 0002849 191.5572 168.5591 15.08782448895972 RS-30 1 32953U 08025A 24298.80597229 .00000024 00000-0 10151-3 0 9991 2 32953 82.5081 8.8625 0019858 179.2683 180.8429 12.43151185745238 PRISM 1 33493U 09002B 24298.43456038 .00068254 00000-0 22052-2 0 9999 2 33493 98.1859 358.1186 0009913 160.2933 199.8691 15.31796654858733 NOAA-19 1 33591U 09005A 24298.80555264 .00000446 00000-0 26293-3 0 9994 2 33591 99.0318 355.8878 0012822 287.7432 72.2340 14.13166903809936 SRMSAT 1 37841U 11058D 24298.73943213 .00000751 00000-0 26530-3 0 9997 2 37841 19.9713 93.1341 0011822 79.0525 38.7482 14.11251309673104 RS-40 1 38735U 12041C 24298.56488580 .00000077 00000-0 48823-3 0 9995 2 38735 82.4720 89.2116 0016663 297.8224 62.1166 12.42618944555248 ZACUBE-1 1 39417U 13066B 24298.82762000 .00013636 00000-0 13182-2 0 9996 2 39417 97.7499 252.2008 0050702 90.6472 270.0557 14.91935495590899 Delfi-N3xt 1 39428U 13066N 24298.49299447 .00022637 00000-0 26435-2 0 9997 2 39428 97.8328 213.6600 0096853 29.6542 331.0113 14.81778679585213 GOMX-1 1 39430U 13066Q 24298.70443336 .00006021 00000-0 97458-3 0 9995 2 39430 97.7097 165.2189 0136163 200.0473 159.5354 14.65581309582007 LO-74 1 39440U 13066AA 24298.39938478 .00009463 00000-0 10507-2 0 9999 2 39440 97.8234 239.5295 0065395 209.6617 150.0883 14.85863389587504 AO-73 1 39444U 13066AE 24298.44061613 .00016863 00000-0 14851-2 0 9995 2 39444 97.7358 255.3432 0048039 71.1403 289.5018 14.95641139589401 DTUSAT-2 1 40030U 14033W 24298.83943165 .00018742 00000-0 14336-2 0 9993 2 40030 98.0242 255.1074 0011822 102.2522 258.0026 15.01906964562643 EO-80 1 40032U 14033Y 24298.40489685 .00015541 00000-0 11884-2 0 9999 2 40032 98.0179 254.6167 0012713 60.9669 299.2826 15.01952468562042 XW-2C 1 40906U 15049H 24298.78945128 .00100051 00000-0 13147-2 0 9992 2 40906 97.4668 320.1400 0006418 165.0447 195.0999 15.58143507504535 XW-2D 1 40907U 15049J 24298.84276578 .00380625 00000-0 16551-2 0 9995 2 40907 97.4522 325.1400 0005462 152.6291 207.5267 15.83818555504938 LILACSAT-2 1 40908U 15049K 24298.57900909 .00019578 00000-0 66246-3 0 9991 2 40908 97.5235 308.5754 0009106 250.7437 109.2819 15.30611626503256 XW-2B 1 40911U 15049N 24298.79762843 .00328145 00000-0 17020-2 0 9990 2 40911 97.4508 324.8512 0005438 153.0288 207.1263 15.80123197504773 IO-86 1 40931U 15052B 24270.29994034 .00002074 00000-0 19195-3 0 9996 2 40931 5.9998 350.0993 0012711 76.7416 283.4129 14.78150863486449 ChubuSat-2 1 41338U 16012B 24298.29357156 .00011533 00000-0 66684-3 0 9998 2 41338 31.0009 278.3635 0009703 96.5085 263.6658 15.11006716477125 ChubuSat-3 1 41339U 16012C 24298.36329180 .00010449 00000-0 61865-3 0 9994 2 41339 31.0073 277.3601 0009915 100.3537 259.8219 15.10129197477016 Horyu-4 1 41340U 16012D 24298.12904376 .00028249 00000-0 11774-2 0 9996 2 41340 31.0001 211.9239 0008571 221.6150 138.3840 15.22502412477777 Lapan A3 1 41603U 16040E 24298.81420806 .00007340 00000-0 27949-3 0 9997 2 41603 97.1421 306.7942 0011923 11.3976 348.7531 15.26949712462991 Pratham 1 41783U 16059A 24298.47800327 .00002480 00000-0 46287-3 0 9994 2 41783 97.8331 311.7689 0031466 332.8479 27.1079 14.65500079431479 CAS-2T 1 41847U 16066G 24298.47126243 .00004977 00000-0 72193-3 0 9999 2 41847 98.4477 8.8006 0351514 147.6454 214.6832 14.42152590418122 CAS-4B 1 42759U 17034B 24298.81705978 .00047245 00000-0 12914-2 0 9993 2 42759 43.0145 210.0599 0012345 157.3582 202.7820 15.36575924407287 CAS-4A 1 42761U 17034D 24298.87075059 .00045787 00000-0 12449-2 0 9994 2 42761 43.0180 207.9783 0012870 167.6347 192.4827 15.36746756407303 D-SAT 1 42794U 17036AF 24298.42798043 .00016150 00000-0 10354-2 0 9993 2 42794 97.4918 275.8622 0106225 68.9439 292.3108 15.03956311400129 TechnoSat 1 42829U 17042E 24298.55133701 .00008658 00000-0 72657-3 0 9996 2 42829 97.3873 112.5757 0011755 0.6960 359.4278 14.98521265396539 AO-91 1 43017U 17073E 24298.55266553 .00018502 00000-0 10623-2 0 9995 2 43017 97.5553 169.6464 0196599 219.5830 139.0900 14.97627251374992 TianYi 6 1 43158U 18008D 24289.57081905 .01911305 30434-2 22393-2 0 9995 2 43158 97.2486 341.2486 0006509 265.8690 94.1850 16.09457699373267 S-Net D 1 43186U 18014G 24298.70879057 .00012505 00000-0 83257-3 0 9995 2 43186 97.5756 198.3751 0007920 293.0345 67.0047 15.07234420367997 S-Net B 1 43187U 18014H 24298.44626033 .00011139 00000-0 74253-3 0 9999 2 43187 97.5764 198.0754 0008541 287.7516 72.2779 15.07215677367956 S-Net A 1 43188U 18014J 24298.31146801 .00011470 00000-0 76420-3 0 9992 2 43188 97.5770 198.0664 0008465 289.3480 70.6833 15.07226789367934 S-Net C 1 43189U 18014K 24298.44828027 .00011388 00000-0 75871-3 0 9991 2 43189 97.5788 198.1746 0010016 278.6897 81.3196 15.07218706366507 Ten-Koh 1 43677U 18084G 24298.43079040 .00006857 00000-0 58804-3 0 9994 2 43677 98.0777 96.0426 0013216 309.7133 50.2922 14.97786517326054 PO-101 1 43678U 18084H 24298.51923949 .00004667 00000-0 41752-3 0 9991 2 43678 98.0854 100.5133 0008208 327.9425 32.1295 14.96357429326257 QO-100 1 43700U 18090A 24298.49361934 .00000136 00000-0 00000+0 0 9995 2 43700 0.0117 193.5597 0001687 55.0432 348.2863 1.00272551 21892 MinXSS-2 1 43758U 18099A 24298.14559289 .00024298 00000-0 13232-2 0 9990 2 43758 97.5376 358.8390 0014138 230.8624 129.1352 15.14330222322265 AO-95 1 43770U 18099N 24298.40839437 .00016650 00000-0 10326-2 0 9993 2 43770 97.5293 353.6963 0011036 281.6918 78.3073 15.09754008322036 RANGE-B 1 43772U 18099Q 24298.13012297 .00031329 00000-0 16215-2 0 9995 2 43772 97.5074 357.5257 0005061 175.1801 184.9481 15.16152547322218 RANGE-A 1 43773U 18099R 24298.42277414 .00011045 00000-0 78380-3 0 9997 2 43773 97.4853 347.5830 0011296 251.6296 108.3703 15.04858107321852 MOVE-II 1 43780U 18099Y 24298.43220422 .00055075 00000-0 20854-2 0 9996 2 43780 97.5039 0.9462 0004626 234.6243 125.4563 15.26712647322565 SNUSat 2 1 43782U 18099AA 24298.11646692 .00013512 00000-0 87324-3 0 9990 2 43782 97.4967 351.8230 0013052 217.3598 142.6724 15.08267476321981 SnugLite 1 43784U 18099AC 24298.41630379 .00017138 00000-0 10565-2 0 9990 2 43784 97.4791 351.4121 0003259 206.3853 153.7211 15.10010037322115 ITASat 1 1 43786U 18099AE 24298.39139365 .00012889 00000-0 85304-3 0 9990 2 43786 97.4931 352.1435 0014770 271.3436 88.6100 15.07382378322016 EAGLET 1 1 43790U 18099AJ 24298.39041089 .00009400 00000-0 66263-3 0 9998 2 43790 97.5122 352.5948 0012020 248.2113 111.7835 15.05147755321690 ESEO 1 43792U 18099AL 24298.60408750 .00005205 00000-0 41388-3 0 9996 2 43792 97.4937 348.7413 0006518 206.2764 153.8131 15.00830185321608 CSIM 1 43793U 18099AM 24298.45480349 .00053913 00000-0 20827-2 0 9997 2 43793 97.5164 2.7771 0010042 215.5320 144.5250 15.26016798322417 JO-97 1 43803U 18099AX 24298.11610746 .00019368 00000-0 11326-2 0 9998 2 43803 97.5032 354.1620 0008408 212.8557 147.2152 15.11877753322146 Suomi 100 1 43804U 18099AY 24298.11677090 .00017177 00000-0 10390-2 0 9990 2 43804 97.5106 353.8958 0013979 215.4628 144.5673 15.10626312322113 ISAT 1 43879U 18111D 24298.24534783 .00027704 00000-0 14229-2 0 9994 2 43879 97.6047 203.6948 0008989 281.0537 78.9685 15.16428416318933 UWE-4 1 43880U 18111E 24298.27074498 .00023736 00000-0 12775-2 0 9996 2 43880 97.5982 203.3671 0012617 290.8536 69.1344 15.14772210318938 Sparrow 1 43881U 18111F 24298.49794419 .00034821 00000-0 17527-2 0 9990 2 43881 97.6156 206.1230 0007869 332.9001 27.1820 15.17094496319045 Prox-1 1 44339U 19036A 24298.18923277 .00019457 00000-0 30309-2 0 9999 2 44339 23.9976 112.8720 0008792 7.5235 352.5391 14.71411379284235 SONATE 1 44400U 19038Q 24298.51537978 .00057899 00000-0 12501-2 0 9992 2 44400 97.7160 299.2644 0013847 17.6802 342.4924 15.44241652293968 Taurus 1 1 44530U 19059C 24298.83161327 .00018197 00000-0 38593-2 0 9992 2 44530 98.5868 62.8323 0009470 17.4250 342.7271 14.59176572270647 Duchifat 3 1 44854U 19089C 24298.49760556 .00042482 00000-0 16986-2 0 9991 2 44854 36.9545 339.9962 0008683 123.8897 236.2679 15.24148582267957 TO-108 1 44881U 19093C 24298.49402323 .00003435 00000-0 41345-3 0 9994 2 44881 97.8175 12.7668 0012814 258.5013 101.4763 14.84487301262220 FloripaSat 1 1 44885U 19093G 24298.82777356 .00013972 00000-0 13380-2 0 9990 2 44885 97.8326 20.6021 0011173 242.6658 117.3425 14.93241776262695 RS-44 1 44909U 19096E 24298.58005373 .00000016 00000-0 96545-5 0 9998 2 44909 82.5266 18.7877 0218479 108.6436 253.8522 12.79735185225525 UPMSat 2 1 46276U 20061E 24298.43091953 .00041027 00000-0 95865-3 0 9993 2 46276 97.2807 3.6912 0001791 71.5017 288.6425 15.42063149230038 AmicalSat 1 46287U 20061R 24298.15005133 .00137352 00000-0 18886-2 0 9993 2 46287 97.3291 6.7517 0001890 144.9461 215.1919 15.56811026229470 SALSAT 1 46495U 20068K 24298.43372086 .00014442 00000-0 74222-3 0 9997 2 46495 97.8336 261.3639 0010959 223.7962 136.2402 15.16537794223879 UVSQ-SAT 1 47438U 21006AB 24298.11681880 .03670113 23594-5 18855-2 0 9991 2 47438 97.2775 3.3666 0006581 273.2868 86.7668 16.20433421208899 SOMP 2b 1 47445U 21006AJ 24298.13412813 .00389207 00000-0 20663-2 0 9999 2 47445 97.2927 0.0504 0002362 150.7124 209.4276 15.79458965208711 IDEASSat 1 47458U 21006AX 24298.14556217 .00208071 00000-0 18834-2 0 9997 2 47458 97.3081 359.8018 0003907 127.5977 232.5639 15.67413865208588 CubeSX-Sirius-HSE 1 47951U 21022V 24298.54762172 .00062444 00000-0 17621-2 0 9991 2 47951 97.4411 197.2593 0014161 48.7731 311.4730 15.36067974198356 CubeSX-HSE 1 47952U 21022W 24298.81274839 .00061448 00000-0 17180-2 0 9993 2 47952 97.4413 197.6529 0014258 47.1995 313.0445 15.36360626198401 KSU-Cubesat 1 47954U 21022Y 24298.71670410 .00087620 00000-0 20007-2 0 9991 2 47954 97.4418 199.6989 0012750 44.7995 315.4279 15.42462105198243 GRBAlpha 1 47959U 21022AD 24298.83601088 .00059998 00000-0 16756-2 0 9997 2 47959 97.4412 197.8437 0014179 47.3830 312.8607 15.36403135197239 Orbicraft-Zorkiy 1 47960U 21022AE 24298.86301831 .00073457 00000-0 17975-2 0 9995 2 47960 97.4455 199.7587 0013133 46.8909 313.3434 15.40427537198024 TUBIN 1 48900U 21059X 24298.71756865 .00042757 00000-0 11393-2 0 9992 2 48900 97.6607 87.9156 0005592 349.8579 10.2551 15.38035737184773 LEDSAT 1 49069U 21073D 24298.17315867 .00043706 00000-0 13544-2 0 9993 2 49069 97.4225 8.9947 0016564 183.6702 176.4421 15.33168761176151 CUTE 1 49263U 21088D 24298.13027107 .00048818 00000-0 17303-2 0 9994 2 49263 97.4810 3.8772 0010877 354.0688 6.0421 15.28879613169277 TeikyoSat 4 1 49396U 21102B 24298.56885625 .00005263 00000-0 36806-3 0 9999 2 49396 97.4450 339.0689 0012726 186.0837 174.0238 15.05639091162217 Z-Sat 1 49399U 21102E 24298.54455077 .00011536 00000-0 69733-3 0 9999 2 49399 97.4157 340.9802 0019747 168.7158 191.4519 15.10656717162502 KOSEN 1 1 49402U 21102H 24298.55540628 .00015923 00000-0 86027-3 0 9991 2 49402 97.4075 342.9659 0018486 150.0707 210.1586 15.14638301162709 HO-113 1 50466U 21131B 24298.51871427 .00001735 00000-0 56338-3 0 9993 2 50466 98.5232 22.9842 0005250 100.4032 259.7748 14.40129592148610 IRIS-A 1 51044U 22002BN 24298.13125492 .00054717 00000-0 12863-2 0 9998 2 51044 97.3680 4.8626 0003788 291.3223 68.7619 15.41807232154216 Planetum 1 1 52738U 22057G 24298.43451726 .00278272 00000-0 21745-2 0 9997 2 52738 97.5717 71.3802 0003143 315.0214 45.0793 15.70801061134613 Foresail-1 1 52766U 22057AL 24298.29750453 .00053469 00000-0 12395-2 0 9991 2 52766 97.5954 67.7745 0007406 30.1711 329.9960 15.42214027134276 SNUGLITE 2 1 52899U 22065F 24298.33787285 .00003744 00000-0 75905-3 0 9993 2 52899 98.1381 77.1984 0008623 108.3624 251.8515 14.61787845123121 IO-117 1 53106U 22080B 24281.96479996 -.00000003 00000-0 00000-0 0 9997 2 53106 70.1376 153.3488 0008243 81.8360 278.3235 6.42557544 52511 FO-118 1 54684U 22167C 24298.56431188 .00098451 00000-0 20293-2 0 9991 2 54684 97.6162 87.7739 0006485 38.7304 321.4408 15.45518019104162 SSS-2B 1 56184U 23054G 24298.52405713 .00191540 00000-0 20326-2 0 9995 2 56184 97.3450 199.0587 0008988 76.9014 283.3247 15.63416029 86160 SO-120 1 56992U 23084BU 24298.80306424 .00111618 00000-0 23135-2 0 9994 2 56992 97.5385 60.9369 0010123 277.9213 82.0886 15.45271998 76063 MRC-100 1 56993U 23084BV 24298.28169876 .00153709 00000-0 25208-2 0 9995 2 56993 97.5376 61.5020 0009909 274.4603 85.5517 15.51846471 76060 UmKA 1 (RS40S) 1 57172U 23091G 24298.52459891 .00013233 00000-0 80627-3 0 9993 2 57172 97.5954 349.3743 0016949 44.3363 315.9221 15.10384546 72995 CubeBel-2 (EU11S) 1 57175U 23091K 24298.51485987 .00018240 00000-0 10606-2 0 9992 2 57175 97.5952 349.5291 0015207 54.9470 305.3184 15.12028161 73002 VERONIKA 1 58261U 23174F 24298.84622528 .00052498 00000-0 17545-2 0 9993 2 58261 97.4464 13.0880 0010788 145.3111 214.8836 15.30775264 53479 KAFASAT 1 58317U 23174BP 24298.54317307 .00084765 00000-0 22800-2 0 9990 2 58317 97.4402 14.1503 0008959 124.2488 235.9606 15.37520756 53534 ENSO 1 58470U 23185J 24298.85369940 .00044329 00000-0 14585-2 0 9999 2 58470 97.4102 4.7315 0011124 175.1558 184.9793 15.31319758 49928 EIRSAT-1 1 58472U 23185L 24298.80868008 .00052556 00000-0 16412-2 0 9997 2 58472 97.4092 4.9121 0010574 176.0398 184.0930 15.32958309 49932 SO-121 1 58567U 23174CY 24298.45326297 .00776301 00000-0 46932-2 0 9991 2 58567 97.4284 17.1453 0003211 232.9934 127.1038 15.75460746 53721 SONATE-2 1 59112U 24043Q 24298.58788283 .00027489 00000-0 11330-2 0 9995 2 59112 97.4919 61.5632 0013529 199.4413 160.6310 15.23968051 35479 MO-122 1 60209U 24125G 24298.56665962 .00028254 00000-0 11590-2 0 9990 2 60209 97.3052 148.2580 0022719 227.7672 132.1638 15.23964201 17080 GRBBeta 1 60237U 24128C 24298.88822813 .00008746 00000-0 73406-3 0 9998 2 60237 61.9928 151.2704 0022411 355.6929 4.3963 14.98780964 16024 Curium One 1 60242U 24128H 24298.32753328 .00012542 00000-0 10442-2 0 9996 2 60242 61.9836 153.4124 0022368 343.7441 16.2928 14.98804026 15945 ROBUSTA-3A 1 60243U 24128J 24298.34284338 .00012279 00000-0 10301-2 0 9990 2 60243 61.9900 153.5702 0020565 339.8972 20.1304 14.98555406 15940 CatSat 1 60246U 24125J 24298.56482927 .00019943 00000-0 83388-3 0 9999 2 60246 97.2871 149.2675 0049689 180.4336 179.6867 15.22477216 15196 SR-0 DemoSAT 1 60455U 24147B 24298.85894591 .01126042 00000-0 59009-2 0 9993 2 60455 37.3681 217.7097 0028279 233.3208 126.4966 15.76837386 10797 Binar 4 1 60952U 98067WS 24298.50265497 .00831027 00000-0 35766-2 0 9995 2 60952 51.6264 29.7260 0009221 4.0257 356.0818 15.82262705 8777 CosmoGirlSat 1 60953U 98067WT 24298.27942091 .00235272 00000-0 21437-2 0 9992 2 60953 51.6328 32.7587 0003897 73.3893 286.7531 15.66610831 8717 Sakura 1 60954U 98067WU 24298.50001360 .00292693 00000-0 23842-2 0 9996 2 60954 51.6326 31.2304 0004068 51.9417 308.1946 15.69178226 8755 Binar 2 1 60956U 98067WW 24298.55267174 .00618960 00000-0 34266-2 0 9991 2 60956 51.6207 30.0445 0007587 14.4152 345.7063 15.77270055 8767 Binar 3 1 60957U 98067WX 24298.54814674 .00713636 00000-0 31624-2 0 9995 2 60957 51.6203 29.2689 0010975 10.1909 349.9313 15.81907717 10766 CySat-1 1 61501U 98067WZ 24298.52780644 .00168778 00000-0 24334-2 0 9999 2 61501 51.6382 34.4184 0007653 101.0509 259.1343 15.54874754 2549 DORA 1 61502U 98067XA 24298.70941954 .00252993 00000-0 33084-2 0 9998 2 61502 51.6376 33.3823 0007148 66.4443 293.7299 15.57207918 2562 /EX